[[{"header":{"parameterUnit":"m.s-1","parameterCategory":2,"la1":30.2991,"la2":30.254,"lo1":-89.0895,"lo2":-89.0444,"dy":0.0017,"dx":0.0017,"nx":28,"ny":28,"refTime":"2023-10-11T09:00:00:Z","depth":"0","parameterNumber":2,"parameterNumberName":"U-component_of_CURRENTS"},"data":[0,0,0,0,0,0,0,0,0,0,0,0,0,0,0,0,0,0,0,0,0,0,0,0,0,0,0,0,0,0,0,0,0,0,0,0,0,0,0,0,0,0,0,0,0,0,0,0,0,0,0,0,0,0,0,0,0,0,0.1895,0.1895,0,0.1886,0.1886,0.1886,0.1871,0.187,0.187,0.187,0.1841,0.184,0.1839,0,0,0,0,0,0,0,0,0,0,0,0,0,0.1886,0.1886,0.1895,0.1895,0.1895,0.1886,0.1886,0.1886,0.1871,0.187,0.187,0.187,0.1841,0.184,0.1839,0,0,0,0,0,0,0,0,0,0,0,0,0,0.1883,0.1886,0.1895,0.1888,0.1887,0.1886,0.1886,0.1886,0.1871,0.187,0.187,0.187,0.1841,0.184,0.1839,0.1836,0,0,0.1836,0.1835,0,0,0,0,0,0,0,0,0.1883,0.1883,0.1889,0.1888,0.1888,0.1881,0.1872,0.1869,0.1871,0.1875,0.187,0.187,0.1853,0.1851,0.1848,0.1834,0.1833,0.1836,0.1835,0.1835,0.1834,0,0,0,0,0,0,0,0.1884,0.1884,0.189,0.1889,0.1888,0.1881,0.188,0.1871,0.1863,0.1875,0.1874,0.1876,0.1853,0.1849,0.1847,0.1833,0.1836,0.1835,0.1834,0.1834,0.1855,0.1856,0,0,0,0,0,0,0.1889,0.1884,0.189,0.189,0.1887,0.1882,0.1881,0.1882,0.1864,0.1862,0.1876,0.1875,0.1851,0.1848,0.1846,0.1874,0.1835,0.1834,0.1833,0.1854,0.1855,0.1856,0,0,0,0,0,0,0.1889,0.189,0.189,0.1888,0.1888,0.1882,0.1883,0.1882,0.1884,0.1866,0.1863,0.1881,0.185,0.1847,0.185,0.1871,0.1833,0.1832,0.1852,0.1854,0.1856,0.1909,0,0,0,0,0,0,0.1889,0.189,0.1892,0.1888,0.1888,0.19,0.1884,0.1882,0.1886,0.1885,0.1868,0.1865,0.185,0.1852,0.1849,0.1869,0.1831,0.1851,0.1853,0.1855,0.1906,0.1912,0.1918,0,0,0,0,0,0.1889,0.1894,0.1892,0.1893,0.1891,0.1901,0.1901,0.1894,0.1886,0.1894,0.1884,0.1866,0.1864,0.1852,0.1848,0.1869,0.185,0.1852,0.1855,0.1903,0.1911,0.1918,0,0,0,0,0,0,0.1889,0.1893,0.1891,0.1896,0.1904,0.19,0.1904,0.19,0.1898,0.1896,0.1876,0.1872,0.1886,0.187,0.1857,0.1883,0.1856,0.1858,0.1894,0.1901,0.1907,0.1918,0.1831,0,0,0,0,0,0.1892,0.1897,0.1902,0.1907,0.1913,0.191,0.1912,0.1911,0.1909,0.1907,0.1896,0.1889,0.1893,0.1891,0.1889,0.1897,0.1905,0.191,0.1916,0.1922,0.193,0.1964,0.1974,0.1865,0.1865,0.1865,0,0,0.1892,0.1896,0.1897,0.1908,0.1911,0.1924,0.1911,0.1921,0.1931,0.1904,0.1912,0.1909,0.1901,0.1916,0.192,0.1905,0.196,0.1925,0.1929,0.1935,0.1968,0.1979,0.1988,0.1867,0.1866,0.1866,0,0,0.1899,0.1902,0.1911,0.1921,0.1934,0.1936,0.1943,0.1946,0.1949,0.1958,0.1948,0.1961,0.1952,0.196,0.196,0.1999,0.1993,0.1998,0.2034,0.2068,0.2077,0.2085,0.212,0.2131,0.1998,0.1998,0.1999,0,0.1899,0.1912,0.1916,0.1931,0.1942,0.1945,0.1962,0.1968,0.1971,0.198,0.1967,0.1986,0.1976,0.2009,0.2024,0.2014,0.2031,0.2005,0.2076,0.2084,0.2092,0.2126,0.2137,0.2001,0.2001,0.2001,0.2,0,0.1916,0.1928,0.1937,0.1957,0.197,0.1986,0.2,0.2013,0.2015,0.2021,0.2051,0.2048,0.2062,0.2065,0.2053,0.2107,0.2103,0.2082,0.2058,0.2106,0.2139,0.215,0.2005,0.2004,0.2004,0.2003,0,0,0.1907,0.1942,0.1944,0.1958,0.1986,0.1997,0.2025,0.2053,0.2079,0.2084,0.2118,0.2132,0.2137,0.214,0.2137,0.2164,0.2233,0.2149,0.2149,0.2184,0.2317,0.2307,0.2318,0.2227,0.2229,0.223,0.2322,0,0.1919,0.1949,0.1966,0.1995,0.2012,0.2033,0.2061,0.2086,0.2109,0.2143,0.2157,0.2186,0.2164,0.2181,0.2207,0.2228,0.2263,0.2211,0.2264,0.2266,0.2251,0.233,0.2284,0.2362,0.2332,0.2334,0.2335,0,0.1925,0.1946,0.1977,0.2017,0.2027,0.2048,0.2099,0.2127,0.2179,0.2199,0.2236,0.2247,0.2297,0.2266,0.2337,0.2306,0.2321,0.2331,0.2335,0.2314,0.2276,0.2306,0.2382,0.2366,0.2352,0.2351,0.2349,0,0.1908,0.195,0.1975,0.1988,0.2037,0.2058,0.2087,0.2141,0.2169,0.2243,0.2272,0.2327,0.2359,0.239,0.2412,0.2384,0.2488,0.2446,0.2454,0.2453,0.2419,0.2412,0.2485,0.2503,0.2503,0.2502,0.2502,0,0.1907,0.1925,0.1969,0.1982,0.2013,0.2055,0.2097,0.214,0.2204,0.2248,0.23,0.2351,0.2392,0.2445,0.2454,0.2502,0.2525,0.2487,0.2486,0.2437,0.2431,0.2415,0.2385,0.2506,0.2505,0.2504,0.2504,0,0.1878,0.1912,0.1937,0.1989,0.2003,0.2024,0.208,0.2116,0.219,0.2254,0.2279,0.238,0.2469,0.2506,0.2575,0.2559,0.2542,0.2603,0.2546,0.2537,0.2508,0.248,0.2414,0.2327,0.2633,0.2633,0.2634,0,0.1866,0.1878,0.1923,0.1936,0.1958,0.1994,0.202,0.2093,0.2135,0.2271,0.2301,0.2418,0.2491,0.2601,0.2623,0.2665,0.2571,0.2625,0.2555,0.2529,0.2499,0.2361,0.2281,0.2537,0.2537,0.2536,0.2536,0,0.1836,0.1854,0.1874,0.1898,0.1923,0.1947,0.1995,0.2021,0.2124,0.2197,0.2312,0.2389,0.2524,0.2572,0.2636,0.2644,0.2518,0.2617,0.2609,0.2457,0.2293,0.2201,0.2455,0.2533,0.2533,0.2533,0.2534,0.2534,0.1806,0.1808,0.1833,0.1851,0.1875,0.1895,0.1897,0.1963,0.2026,0.2123,0.2257,0.2365,0.2498,0.2597,0.2581,0.258,0.2501,0.2535,0.2515,0.2386,0.2264,0.2515,0.2573,0.2574,0.2574,0.2575,0.2575,0,0.1754,0.1768,0.1785,0.1797,0.1794,0.1831,0.1871,0.187,0.1917,0.2054,0.2148,0.2334,0.2423,0.2503,0.2579,0.2512,0.2344,0.2459,0.2273,0.2205,0.2477,0.2437,0.2444,0.2444,0.2444,0.2444,0.2444,0.2444,0.1729,0.1721,0.1731,0.1706,0.1717,0.1687,0.1695,0.1718,0.179,0.1903,0.2019,0.214,0.2372,0.2559,0.2571,0.2503,0.2285,0.22,0.2143,0.2391,0.2396,0.2401,0.2359,0.235,0.235,0.1785,0.1781,0.1778]},{"header":{"parameterUnit":"m.s-1","parameterCategory":2,"la1":30.2991,"la2":30.254,"lo1":-89.0895,"lo2":-89.0444,"dy":0.0017,"dx":0.0017,"nx":28,"ny":28,"refTime":"2023-10-11T09:00:00:Z","depth":"0","parameterNumber":3,"parameterNumberName":"V-component_of_CURRENTS"},"data":[0,0,0,0,0,0,0,0,0,0,0,0,0,0,0,0,0,0,0,0,0,0,0,0,0,0,0,0,0,0,0,0,0,0,0,0,0,0,0,0,0,0,0,0,0,0,0,0,0,0,0,0,0,0,0,0,0,0,-0.0244,-0.0244,0,-0.0281,-0.0281,-0.0282,-0.0305,-0.0305,-0.0305,-0.0305,-0.0353,-0.0354,-0.0355,0,0,0,0,0,0,0,0,0,0,0,0,0,-0.0217,-0.0217,-0.0244,-0.0245,-0.0245,-0.0281,-0.0282,-0.0282,-0.0305,-0.0305,-0.0305,-0.0305,-0.0352,-0.0354,-0.0355,0,0,0,0,0,0,0,0,0,0,0,0,0,-0.0239,-0.0218,-0.0244,-0.0261,-0.0262,-0.0281,-0.0282,-0.0282,-0.0305,-0.0305,-0.0305,-0.0306,-0.0352,-0.0354,-0.0355,-0.0363,0,0,-0.0361,-0.0361,0,0,0,0,0,0,0,0,-0.0238,-0.024,-0.0258,-0.0259,-0.0262,-0.0288,-0.0289,-0.031,-0.0305,-0.0289,-0.0305,-0.0306,-0.0332,-0.0335,-0.0342,-0.0365,-0.0367,-0.0361,-0.0362,-0.0363,-0.0363,0,0,0,0,0,0,0,-0.0236,-0.0239,-0.0259,-0.0258,-0.0261,-0.0274,-0.0277,-0.0293,-0.031,-0.0291,-0.0292,-0.0296,-0.0333,-0.034,-0.0343,-0.0368,-0.0361,-0.0362,-0.0363,-0.0364,-0.0399,-0.0399,0,0,0,0,0,0,-0.023,-0.0237,-0.0258,-0.026,-0.025,-0.0275,-0.0278,-0.028,-0.0309,-0.0314,-0.0296,-0.0297,-0.0337,-0.0341,-0.0345,-0.0352,-0.0363,-0.0364,-0.0365,-0.0399,-0.0399,-0.0399,0,0,0,0,0,0,-0.0229,-0.0231,-0.0256,-0.0249,-0.0254,-0.0275,-0.0277,-0.028,-0.0287,-0.0313,-0.0318,-0.0298,-0.0338,-0.0343,-0.0356,-0.0355,-0.0365,-0.0367,-0.0399,-0.0399,-0.0399,-0.0369,0,0,0,0,0,0,-0.0228,-0.0231,-0.0229,-0.0249,-0.0254,-0.0264,-0.0277,-0.0281,-0.0289,-0.0291,-0.0317,-0.0322,-0.0338,-0.0353,-0.0358,-0.0357,-0.0368,-0.0399,-0.0399,-0.0399,-0.037,-0.0368,-0.0366,0,0,0,0,0,-0.0227,-0.0222,-0.0228,-0.0231,-0.0251,-0.0264,-0.0267,-0.0283,-0.0289,-0.029,-0.0307,-0.0321,-0.0355,-0.0355,-0.036,-0.036,-0.0399,-0.0399,-0.0399,-0.0371,-0.0368,-0.0366,0,0,0,0,0,0,-0.0209,-0.0224,-0.0232,-0.0232,-0.0245,-0.0267,-0.0268,-0.028,-0.0295,-0.0294,-0.0319,-0.0325,-0.0336,-0.0351,-0.035,-0.0369,-0.038,-0.038,-0.0357,-0.0354,-0.0352,-0.0339,-0.0369,0,0,0,0,0,-0.0204,-0.0204,-0.0223,-0.0223,-0.0227,-0.0247,-0.0254,-0.0265,-0.028,-0.0287,-0.0305,-0.0324,-0.034,-0.0349,-0.0365,-0.0375,-0.0391,-0.0379,-0.0376,-0.0374,-0.0367,-0.0397,-0.0397,-0.0398,-0.0398,-0.0398,0,0,-0.0197,-0.0205,-0.0206,-0.0219,-0.023,-0.023,-0.0252,-0.0258,-0.0259,-0.0289,-0.0295,-0.0317,-0.034,-0.0351,-0.0358,-0.0364,-0.0382,-0.0374,-0.0372,-0.0366,-0.0396,-0.0396,-0.0396,-0.0398,-0.0398,-0.0398,0,0,-0.0181,-0.019,-0.0183,-0.0192,-0.0204,-0.0216,-0.0216,-0.0236,-0.0245,-0.0255,-0.0277,-0.0296,-0.032,-0.0338,-0.035,-0.0346,-0.0369,-0.0351,-0.0331,-0.036,-0.036,-0.036,-0.0376,-0.0378,-0.0351,-0.0351,-0.0351,0,-0.0171,-0.0165,-0.0184,-0.0179,-0.0179,-0.0206,-0.0196,-0.0211,-0.0233,-0.0236,-0.0252,-0.0288,-0.0313,-0.0326,-0.0327,-0.0341,-0.0356,-0.0338,-0.0357,-0.0358,-0.0358,-0.0375,-0.0378,-0.0349,-0.0349,-0.035,-0.035,0,-0.015,-0.0145,-0.0141,-0.0142,-0.0145,-0.0142,-0.0161,-0.0169,-0.0184,-0.0199,-0.0216,-0.0255,-0.0273,-0.029,-0.0309,-0.0325,-0.0332,-0.035,-0.0362,-0.0356,-0.0374,-0.0377,-0.0347,-0.0348,-0.0348,-0.0349,0,0,-0.0123,-0.0125,-0.0122,-0.0113,-0.0123,-0.0122,-0.0123,-0.0129,-0.0123,-0.0159,-0.0156,-0.0201,-0.0222,-0.0237,-0.0269,-0.03,-0.0325,-0.0324,-0.0327,-0.0337,-0.0379,-0.037,-0.0373,-0.0348,-0.0348,-0.0349,-0.0388,0,-0.0098,-0.0076,-0.0085,-0.0062,-0.005,-0.0071,-0.0067,-0.0077,-0.0092,-0.0098,-0.0146,-0.0157,-0.0201,-0.021,-0.0249,-0.0302,-0.0333,-0.0312,-0.0385,-0.0387,-0.0378,-0.0376,-0.0363,-0.0396,-0.0391,-0.0391,-0.0392,0,-0.0067,-0.0056,-0.0027,-0.0015,-0.0011,-0.0001,0.0009,0.0007,-0.0012,-0.0024,-0.005,-0.0085,-0.013,-0.0172,-0.0262,-0.0246,-0.0306,-0.0355,-0.0358,-0.0361,-0.0384,-0.0402,-0.0402,-0.0518,-0.0397,-0.0397,-0.0396,0,-0.0028,-0.0013,0.0015,0.0019,0.0025,0.0038,0.0043,0.0036,0.0047,0.0026,0.0031,-0.003,-0.005,-0.0141,-0.0239,-0.0253,-0.0336,-0.037,-0.0418,-0.0418,-0.0426,-0.0425,-0.0543,-0.0435,-0.0435,-0.0435,-0.0434,0,0.0008,0.0029,0.0037,0.0054,0.0092,0.0082,0.012,0.0112,0.0116,0.0147,0.0075,0.0085,-0.0044,-0.0106,-0.0212,-0.0312,-0.0316,-0.0408,-0.0427,-0.0414,-0.0412,-0.0528,-0.0609,-0.0436,-0.0436,-0.0435,-0.0435,0,0.0046,0.0049,0.0083,0.0102,0.0114,0.0142,0.0177,0.0203,0.0195,0.0233,0.023,0.0176,0.01,-0.0029,-0.0164,-0.0261,-0.0448,-0.0408,-0.0374,-0.0388,-0.0545,-0.0624,-0.0758,-0.0853,-0.0473,-0.0473,-0.0473,0,0.0066,0.0089,0.0125,0.0153,0.0166,0.0206,0.0238,0.0245,0.0282,0.0298,0.0324,0.0266,0.0249,0.0055,-0.0128,-0.0302,-0.0442,-0.0412,-0.0444,-0.0547,-0.065,-0.0703,-0.0778,-0.0446,-0.0445,-0.0445,-0.0445,0,0.0109,0.0122,0.0151,0.0209,0.0251,0.0297,0.0347,0.0388,0.041,0.0446,0.0488,0.0476,0.0307,0.0151,-0.0088,-0.0226,-0.0512,-0.0413,-0.0539,-0.0651,-0.0699,-0.0799,-0.0421,-0.0443,-0.0444,-0.0444,-0.0444,-0.0444,0.0145,0.0172,0.0214,0.0268,0.0319,0.0384,0.0431,0.0495,0.0567,0.0631,0.062,0.0632,0.0389,0.007,-0.0124,-0.0474,-0.0508,-0.0582,-0.0672,-0.0716,-0.0805,-0.041,-0.0442,-0.0442,-0.0442,-0.0443,-0.0443,0,0.0187,0.0216,0.0269,0.0334,0.0393,0.0411,0.05,0.0552,0.0651,0.0724,0.0769,0.0669,0.0366,0.0037,-0.0416,-0.0668,-0.0806,-0.0829,-0.0918,-0.0989,-0.0646,-0.0642,-0.0695,-0.0694,-0.0694,-0.0694,-0.0694,-0.0694,0.0211,0.0265,0.0287,0.0386,0.0432,0.0511,0.0563,0.0648,0.0717,0.0803,0.083,0.082,0.0577,-0.0188,-0.0783,-0.095,-0.1171,-0.1192,-0.1338,-0.1106,-0.109,-0.1075,-0.1089,-0.1235,-0.1236,-0.1641,-0.1645,-0.1649]}],[{"header":{"parameterUnit":"m.s-1","parameterCategory":2,"la1":30.2991,"la2":30.254,"lo1":-89.0895,"lo2":-89.0444,"dy":0.0017,"dx":0.0017,"nx":28,"ny":28,"refTime":"2023-10-11T09:00:00:Z","depth":"2","parameterNumber":2,"parameterNumberName":"U-component_of_CURRENTS"},"data":[0,0,0,0,0,0,0,0,0,0,0,0,0,0,0,0,0,0,0,0,0,0,0,0,0,0,0,0,0,0,0,0,0,0,0,0,0,0,0,0,0,0,0,0,0,0,0,0,0,0,0,0,0,0,0,0,0,0,0.1896,0.1896,0,0.1889,0.1888,0.1888,0.1875,0.1875,0.1875,0.1875,0.185,0.1849,0.1849,0,0,0,0,0,0,0,0,0,0,0,0,0,0.1886,0.1886,0.1896,0.1896,0.1896,0.1889,0.1888,0.1888,0.1875,0.1875,0.1875,0.1875,0.185,0.1849,0.1849,0,0,0,0,0,0,0,0,0,0,0,0,0,0.1884,0.1886,0.1896,0.189,0.1889,0.1889,0.1888,0.1888,0.1875,0.1875,0.1875,0.1875,0.185,0.185,0.1849,0.1846,0,0,0.1846,0.1846,0,0,0,0,0,0,0,0,0.1884,0.1884,0.1891,0.189,0.189,0.1884,0.1876,0.1874,0.1875,0.1879,0.1875,0.1875,0.1861,0.1859,0.1856,0.1845,0.1844,0.1846,0.1845,0.1845,0.1845,0,0,0,0,0,0,0,0.1884,0.1884,0.1891,0.1891,0.189,0.1883,0.1883,0.1875,0.1869,0.1879,0.1878,0.188,0.186,0.1857,0.1855,0.1843,0.1846,0.1845,0.1845,0.1844,0.1868,0.1869,0,0,0,0,0,0,0.1889,0.1884,0.1891,0.1891,0.1888,0.1884,0.1883,0.1885,0.1869,0.1868,0.188,0.188,0.1858,0.1856,0.1854,0.1884,0.1845,0.1844,0.1844,0.1867,0.1869,0.187,0,0,0,0,0,0,0.1889,0.189,0.1892,0.1889,0.1889,0.1884,0.1886,0.1885,0.1888,0.1871,0.1869,0.1886,0.1858,0.1856,0.186,0.1882,0.1844,0.1843,0.1866,0.1868,0.1869,0.1922,0,0,0,0,0,0,0.1889,0.189,0.1893,0.1889,0.1889,0.1902,0.1886,0.1885,0.189,0.1889,0.1875,0.1872,0.1858,0.1862,0.1859,0.188,0.1842,0.1864,0.1867,0.1869,0.1919,0.1926,0.1931,0,0,0,0,0,0.1888,0.1894,0.1893,0.1894,0.1893,0.1903,0.1903,0.1897,0.189,0.1898,0.189,0.1873,0.1874,0.1862,0.1859,0.188,0.1863,0.1866,0.1869,0.1916,0.1924,0.1931,0,0,0,0,0,0,0.189,0.1893,0.1892,0.1898,0.1905,0.1902,0.1907,0.1904,0.1903,0.1901,0.1883,0.188,0.1895,0.188,0.1867,0.1895,0.1868,0.187,0.1905,0.1913,0.1919,0.1929,0.1841,0,0,0,0,0,0.1892,0.1898,0.1903,0.1908,0.1914,0.1912,0.1915,0.1914,0.1913,0.1912,0.1902,0.1897,0.1902,0.1902,0.19,0.191,0.1918,0.1924,0.193,0.1935,0.1942,0.1977,0.1987,0.1879,0.1879,0.1878,0,0,0.1893,0.1897,0.1899,0.1909,0.1913,0.1926,0.1913,0.1924,0.1935,0.1909,0.1919,0.1917,0.191,0.1926,0.1932,0.1917,0.1973,0.1938,0.1943,0.1947,0.1981,0.1992,0.2001,0.188,0.188,0.188,0,0,0.1901,0.1904,0.1914,0.1924,0.1936,0.1939,0.1946,0.195,0.1953,0.1963,0.1955,0.1969,0.1962,0.197,0.1972,0.2011,0.2005,0.201,0.2046,0.2081,0.209,0.2098,0.2132,0.2143,0.2012,0.2012,0.2012,0,0.1902,0.1915,0.1919,0.1934,0.1944,0.1948,0.1965,0.1972,0.1976,0.1985,0.1974,0.1994,0.1986,0.2019,0.2034,0.2025,0.2043,0.2018,0.2089,0.2097,0.2105,0.2137,0.2148,0.2015,0.2014,0.2014,0.2014,0,0.1919,0.1931,0.194,0.196,0.1973,0.1989,0.2003,0.2017,0.202,0.2027,0.2058,0.2056,0.2071,0.2075,0.2064,0.2118,0.2114,0.2094,0.2071,0.2119,0.215,0.2161,0.2019,0.2018,0.2017,0.2016,0,0,0.1911,0.1945,0.1947,0.1961,0.1989,0.2,0.2029,0.2057,0.2082,0.209,0.2124,0.214,0.2145,0.2149,0.2147,0.2175,0.2244,0.2161,0.2161,0.2195,0.2328,0.2307,0.2317,0.2239,0.2241,0.2243,0.2331,0,0.1922,0.1952,0.1969,0.1998,0.2015,0.2036,0.2064,0.209,0.2114,0.2148,0.2163,0.2192,0.2172,0.2189,0.2217,0.2238,0.2274,0.2222,0.2275,0.2277,0.2253,0.2329,0.2122,0.2182,0.2342,0.2344,0.2345,0,0.1929,0.1949,0.198,0.2019,0.203,0.2051,0.2102,0.213,0.2182,0.2203,0.2241,0.2252,0.2302,0.2273,0.2345,0.2315,0.233,0.2341,0.2345,0.2314,0.2276,0.2158,0.2195,0.2362,0.2361,0.236,0.2359,0,0.1912,0.1954,0.1979,0.1992,0.204,0.2062,0.2091,0.2145,0.2172,0.2245,0.2274,0.233,0.2363,0.2395,0.2417,0.2391,0.2493,0.2455,0.2454,0.2452,0.228,0.226,0.2511,0.2511,0.2511,0.2511,0.2511,0,0.1911,0.1929,0.1973,0.1986,0.2017,0.2058,0.2101,0.2144,0.2207,0.2251,0.2302,0.2351,0.2396,0.2448,0.2457,0.25,0.2529,0.2484,0.2483,0.2294,0.2275,0.2425,0.2414,0.2514,0.2513,0.2513,0.2512,0,0.1884,0.1916,0.1942,0.1993,0.2008,0.203,0.2085,0.2121,0.2194,0.2256,0.2281,0.2381,0.2465,0.2502,0.2571,0.2554,0.2591,0.2593,0.2374,0.2346,0.2517,0.2508,0.2612,0.2612,0.2612,0.2612,0.2613,0,0.1871,0.1884,0.1929,0.1942,0.1964,0.2001,0.2027,0.2099,0.214,0.2272,0.2301,0.2413,0.2476,0.258,0.2577,0.2608,0.2628,0.2429,0.2341,0.2544,0.2533,0.2523,0.2513,0.2134,0.213,0.2127,0.2125,0,0.1843,0.1861,0.1881,0.1905,0.193,0.1954,0.2002,0.2027,0.2128,0.2194,0.2302,0.237,0.2475,0.2425,0.247,0.2454,0.2408,0.237,0.2644,0.2148,0.2103,0.2089,0.2093,0.2097,0.21,0.2102,0.2103,0.2105,0.1814,0.1817,0.1842,0.186,0.1884,0.1902,0.1904,0.1957,0.2012,0.2071,0.2212,0.2231,0.227,0.2239,0.2193,0.2155,0.2324,0.22,0.2205,0.2215,0.2151,0.211,0.2093,0.2096,0.2098,0.21,0.2102,0,0.176,0.1777,0.1794,0.1806,0.1797,0.184,0.1878,0.1851,0.1875,0.1943,0.2001,0.1874,0.1855,0.1884,0.1793,0.1824,0.1761,0.1742,0.1623,0.1655,0.1682,0.1584,0.138,0.1377,0.1375,0.1372,0,0,0.1735,0.1726,0.1734,0.1706,0.172,0.168,0.1687,0.1664,0.1674,0.1647,0.1628,0.1744,0.183,0.1561,0.1555,0.1445,0.1527,0.139,0.1977,0.1869,0.1892,0.1967,0.1858,0,0,0,0,0]},{"header":{"parameterUnit":"m.s-1","parameterCategory":2,"la1":30.2991,"la2":30.254,"lo1":-89.0895,"lo2":-89.0444,"dy":0.0017,"dx":0.0017,"nx":28,"ny":28,"refTime":"2023-10-11T09:00:00:Z","depth":"2","parameterNumber":3,"parameterNumberName":"V-component_of_CURRENTS"},"data":[0,0,0,0,0,0,0,0,0,0,0,0,0,0,0,0,0,0,0,0,0,0,0,0,0,0,0,0,0,0,0,0,0,0,0,0,0,0,0,0,0,0,0,0,0,0,0,0,0,0,0,0,0,0,0,0,0,0,-0.0135,-0.0135,0,-0.0171,-0.0172,-0.0172,-0.0198,-0.0198,-0.0198,-0.0198,-0.0245,-0.0246,-0.0247,0,0,0,0,0,0,0,0,0,0,0,0,0,-0.011,-0.011,-0.0135,-0.0135,-0.0136,-0.0171,-0.0172,-0.0172,-0.0198,-0.0198,-0.0198,-0.0198,-0.0245,-0.0246,-0.0248,0,0,0,0,0,0,0,0,0,0,0,0,0,-0.0131,-0.011,-0.0135,-0.0152,-0.0154,-0.0171,-0.0172,-0.0173,-0.0198,-0.0198,-0.0198,-0.0198,-0.0245,-0.0246,-0.0248,-0.0253,0,0,-0.0253,-0.0253,0,0,0,0,0,0,0,0,-0.013,-0.0132,-0.0149,-0.0151,-0.0153,-0.018,-0.018,-0.02,-0.0198,-0.0181,-0.0198,-0.0198,-0.0224,-0.0228,-0.0234,-0.0255,-0.0257,-0.0253,-0.0254,-0.0255,-0.0255,0,0,0,0,0,0,0,-0.0128,-0.0131,-0.015,-0.015,-0.0152,-0.0166,-0.017,-0.0184,-0.0201,-0.0183,-0.0185,-0.0188,-0.0225,-0.0232,-0.0235,-0.0258,-0.0253,-0.0254,-0.0255,-0.0256,-0.0288,-0.0288,0,0,0,0,0,0,-0.0122,-0.0129,-0.0148,-0.0151,-0.0142,-0.0167,-0.017,-0.0171,-0.0201,-0.0205,-0.0188,-0.0189,-0.0229,-0.0233,-0.0237,-0.0244,-0.0255,-0.0256,-0.0257,-0.0288,-0.0288,-0.0288,0,0,0,0,0,0,-0.0121,-0.0123,-0.0147,-0.0141,-0.0145,-0.0167,-0.0168,-0.0172,-0.018,-0.0205,-0.021,-0.0193,-0.023,-0.0235,-0.0248,-0.0246,-0.0257,-0.0258,-0.0288,-0.0288,-0.0288,-0.0259,0,0,0,0,0,0,-0.012,-0.0122,-0.0121,-0.014,-0.0145,-0.0154,-0.0168,-0.0173,-0.0182,-0.0184,-0.021,-0.0215,-0.023,-0.0245,-0.0249,-0.0249,-0.026,-0.0288,-0.0288,-0.0288,-0.026,-0.0258,-0.0256,0,0,0,0,0,-0.0119,-0.0114,-0.0121,-0.0124,-0.0142,-0.0154,-0.0158,-0.0174,-0.0182,-0.0183,-0.02,-0.0214,-0.0247,-0.0246,-0.0251,-0.0251,-0.0289,-0.0288,-0.0288,-0.0261,-0.0259,-0.0256,0,0,0,0,0,0,-0.0103,-0.0117,-0.0125,-0.0125,-0.0138,-0.0158,-0.016,-0.0173,-0.0187,-0.0188,-0.0212,-0.0218,-0.0229,-0.0243,-0.0242,-0.026,-0.027,-0.0271,-0.0248,-0.0246,-0.0244,-0.0231,-0.0261,0,0,0,0,0,-0.0098,-0.0098,-0.0116,-0.0116,-0.012,-0.014,-0.0147,-0.0158,-0.0173,-0.018,-0.0199,-0.0217,-0.0232,-0.0241,-0.0255,-0.0265,-0.0281,-0.0268,-0.0266,-0.0264,-0.0257,-0.0285,-0.0285,-0.0287,-0.0287,-0.0287,0,0,-0.0093,-0.01,-0.0101,-0.0112,-0.0123,-0.0123,-0.0145,-0.0152,-0.0152,-0.0183,-0.0189,-0.021,-0.0232,-0.0242,-0.0249,-0.0254,-0.0271,-0.0263,-0.0262,-0.0255,-0.0285,-0.0285,-0.0285,-0.0287,-0.0287,-0.0287,0,0,-0.0077,-0.0087,-0.008,-0.0088,-0.01,-0.011,-0.0111,-0.0131,-0.014,-0.015,-0.0172,-0.0191,-0.0213,-0.0229,-0.024,-0.0235,-0.0259,-0.0241,-0.0221,-0.0249,-0.0249,-0.0249,-0.0267,-0.0269,-0.024,-0.024,-0.024,0,-0.0069,-0.0062,-0.008,-0.0075,-0.0075,-0.0102,-0.0091,-0.0106,-0.0128,-0.0131,-0.0147,-0.0182,-0.0206,-0.0216,-0.0217,-0.023,-0.0246,-0.0228,-0.0246,-0.0247,-0.0248,-0.0265,-0.0268,-0.0239,-0.0239,-0.0239,-0.0239,0,-0.0048,-0.0043,-0.0039,-0.0039,-0.0042,-0.0039,-0.0056,-0.0065,-0.0081,-0.0094,-0.0111,-0.0148,-0.0166,-0.0182,-0.02,-0.0214,-0.0223,-0.024,-0.0252,-0.0246,-0.0265,-0.0268,-0.0237,-0.0237,-0.0238,-0.0238,0,0,-0.0024,-0.0023,-0.0021,-0.0011,-0.002,-0.0018,-0.0019,-0.0024,-0.0018,-0.0053,-0.005,-0.0093,-0.0115,-0.0128,-0.0159,-0.0189,-0.0215,-0.0215,-0.0217,-0.0229,-0.027,-0.0262,-0.0265,-0.0237,-0.0237,-0.0238,-0.028,0,0.0001,0.0023,0.0016,0.0039,0.0052,0.0032,0.0037,0.0028,0.0013,0.0007,-0.0038,-0.0049,-0.0093,-0.0103,-0.014,-0.0192,-0.0223,-0.0201,-0.0275,-0.0277,-0.0269,-0.0268,-0.0229,-0.0262,-0.0283,-0.0284,-0.0284,0,0.003,0.0042,0.0071,0.0086,0.009,0.01,0.011,0.011,0.0092,0.008,0.0054,0.002,-0.0024,-0.0066,-0.0154,-0.0138,-0.0199,-0.0247,-0.025,-0.0253,-0.0275,-0.0272,-0.0267,-0.029,-0.029,-0.0289,-0.0289,0,0.0066,0.0083,0.0111,0.0115,0.0125,0.0137,0.0142,0.0136,0.0149,0.0127,0.0131,0.0073,0.0052,-0.0037,-0.0134,-0.0147,-0.0229,-0.0261,-0.0311,-0.0311,-0.0296,-0.0294,-0.0326,-0.0326,-0.0326,-0.0326,-0.0325,0,0.01,0.0122,0.0131,0.0148,0.0185,0.0177,0.0215,0.0208,0.0213,0.0245,0.0174,0.0184,0.0057,-0.0004,-0.0108,-0.0208,-0.021,-0.0302,-0.0321,-0.0284,-0.028,-0.0321,-0.032,-0.0327,-0.0327,-0.0327,-0.0326,0,0.0135,0.014,0.0174,0.0194,0.0206,0.0233,0.0268,0.0295,0.0287,0.0325,0.0321,0.0269,0.0194,0.0068,-0.0064,-0.0159,-0.0268,-0.0304,-0.0244,-0.0256,-0.034,-0.0337,-0.0371,-0.0371,-0.0371,-0.0371,-0.0371,0,0.0154,0.0177,0.0213,0.024,0.0253,0.0292,0.0325,0.0334,0.0371,0.0387,0.0414,0.0355,0.0337,0.0147,-0.0026,-0.0196,-0.0242,-0.0284,-0.0311,-0.033,-0.0345,-0.0342,-0.0339,-0.0282,-0.0281,-0.0281,-0.028,0,0.0195,0.0208,0.0236,0.0292,0.0334,0.038,0.043,0.0471,0.0495,0.053,0.0571,0.0558,0.0397,0.0249,0.0015,-0.0105,-0.0257,-0.0279,-0.0314,-0.0272,-0.0248,-0.0263,-0.0262,-0.0275,-0.0276,-0.0276,-0.0276,-0.0277,0.0228,0.0255,0.0295,0.0348,0.0398,0.0463,0.051,0.0579,0.0651,0.0715,0.0697,0.0689,0.0514,0.0234,0.003,-0.0198,-0.0207,-0.0295,-0.0296,-0.0298,-0.0276,-0.0253,-0.0276,-0.0277,-0.0277,-0.0277,-0.0278,0,0.0273,0.0296,0.0348,0.0411,0.0475,0.0488,0.0577,0.0642,0.0745,0.08,0.084,0.0699,0.0527,0.0304,-0.0014,-0.0208,-0.0231,-0.028,-0.0263,-0.0266,-0.0269,-0.0246,-0.0238,-0.0239,-0.0239,-0.024,0,0,0.0297,0.0351,0.0373,0.0471,0.0511,0.0603,0.0654,0.0757,0.0823,0.0899,0.0898,0.0865,0.0602,0.0383,0.0126,-0.006,-0.0127,-0.01,-0.0109,-0.0062,-0.0063,-0.0251,-0.0215,0,0,0,0,0]}],[{"header":{"parameterUnit":"m.s-1","parameterCategory":2,"la1":30.2991,"la2":30.254,"lo1":-89.0895,"lo2":-89.0444,"dy":0.0017,"dx":0.0017,"nx":28,"ny":28,"refTime":"2023-10-11T09:00:00:Z","depth":"4","parameterNumber":2,"parameterNumberName":"U-component_of_CURRENTS"},"data":[0,0,0,0,0,0,0,0,0,0,0,0,0,0,0,0,0,0,0,0,0,0,0,0,0,0,0,0,0,0,0,0,0,0,0,0,0,0,0,0,0,0,0,0,0,0,0,0,0,0,0,0,0,0,0,0,0,0,0.1248,0.1249,0,0.1284,0.1284,0.1284,0.1322,0.1323,0.1324,0.1324,0.1373,0.1374,0.1375,0,0,0,0,0,0,0,0,0,0,0,0,0,0.1202,0.1202,0.1248,0.1249,0.1249,0.1283,0.1284,0.1284,0.1322,0.1323,0.1324,0.1324,0.1373,0.1374,0.1375,0,0,0,0,0,0,0,0,0,0,0,0,0,0.1227,0.1202,0.1248,0.1273,0.1276,0.1283,0.1284,0.1284,0.1322,0.1323,0.1324,0.1325,0.1373,0.1374,0.1375,0.1363,0,0,0.1378,0.1379,0,0,0,0,0,0,0,0,0.1226,0.1229,0.1269,0.1271,0.1274,0.13,0.1286,0.1312,0.1322,0.1304,0.1324,0.1325,0.135,0.1353,0.1356,0.1365,0.1367,0.1378,0.1379,0.138,0.138,0,0,0,0,0,0,0,0.1224,0.1227,0.1261,0.1269,0.1273,0.1278,0.1283,0.129,0.1321,0.1305,0.1308,0.1313,0.1352,0.1355,0.1358,0.1368,0.1378,0.1379,0.138,0.138,0.1459,0.146,0,0,0,0,0,0,0.1221,0.1226,0.126,0.1262,0.1253,0.1278,0.1284,0.129,0.132,0.1326,0.1312,0.1315,0.1353,0.1356,0.136,0.1427,0.138,0.1381,0.1381,0.1457,0.1459,0.146,0,0,0,0,0,0,0.122,0.1224,0.1259,0.1245,0.125,0.1278,0.1285,0.129,0.1323,0.1326,0.1332,0.1343,0.1354,0.1358,0.1394,0.1426,0.1381,0.1382,0.1455,0.1458,0.146,0.151,0,0,0,0,0,0,0.1218,0.1223,0.1239,0.1245,0.1251,0.1284,0.1285,0.1291,0.1323,0.1327,0.1354,0.1357,0.1355,0.1393,0.1395,0.1427,0.1383,0.1454,0.1456,0.1459,0.1507,0.1514,0.152,0,0,0,0,0,0.1216,0.123,0.124,0.1245,0.1268,0.1285,0.1289,0.131,0.1324,0.1343,0.1363,0.1358,0.1412,0.1395,0.1397,0.143,0.1452,0.1456,0.1459,0.1504,0.1513,0.152,0,0,0,0,0,0,0.1219,0.1236,0.1246,0.1266,0.1284,0.1292,0.1314,0.1326,0.1356,0.1369,0.1372,0.1378,0.1422,0.1419,0.14,0.1461,0.1433,0.1437,0.1466,0.1474,0.1481,0.1478,0.1384,0,0,0,0,0,0.1226,0.1245,0.1258,0.1278,0.129,0.1307,0.1322,0.1337,0.1356,0.1372,0.1389,0.141,0.1431,0.1448,0.1462,0.1493,0.1492,0.1517,0.1524,0.1529,0.153,0.1554,0.1563,0.1471,0.1471,0.1471,0,0,0.1233,0.1246,0.1257,0.1281,0.1298,0.1318,0.132,0.1351,0.1374,0.1371,0.1418,0.1434,0.1444,0.1482,0.1502,0.1488,0.1558,0.1533,0.1538,0.1536,0.1559,0.1568,0.1575,0.1473,0.1473,0.1472,0,0,0.1246,0.1269,0.1287,0.1304,0.1335,0.1345,0.1361,0.1385,0.1409,0.1447,0.1455,0.1491,0.1521,0.1536,0.1545,0.1596,0.1591,0.1608,0.1642,0.1666,0.1673,0.168,0.1701,0.1709,0.1613,0.1613,0.1613,0,0.1256,0.1279,0.1296,0.1316,0.1336,0.1361,0.1384,0.1407,0.1443,0.1464,0.1473,0.1533,0.1545,0.1587,0.1609,0.1611,0.1623,0.161,0.1674,0.168,0.1686,0.1705,0.1714,0.1616,0.1616,0.1615,0.1615,0,0.1273,0.1302,0.1317,0.1351,0.1373,0.1401,0.1428,0.1463,0.1496,0.1515,0.1574,0.1594,0.1631,0.1645,0.1644,0.1697,0.1693,0.1677,0.1651,0.1698,0.1716,0.1724,0.162,0.1619,0.1618,0.1618,0,0,0.1261,0.1318,0.1326,0.135,0.1397,0.1413,0.146,0.1502,0.1541,0.1583,0.163,0.1674,0.1694,0.1706,0.1718,0.1741,0.1799,0.1734,0.1734,0.1751,0.1858,0.1753,0.1751,0.1799,0.18,0.1801,0.1857,0,0.1273,0.1315,0.1343,0.139,0.1413,0.1454,0.1494,0.1537,0.1582,0.1634,0.1668,0.1719,0.1715,0.1749,0.1772,0.1792,0.182,0.1785,0.1813,0.1814,0.1711,0.1756,0.1806,0.1863,0.1864,0.1865,0.1866,0,0.1272,0.1304,0.1352,0.1412,0.1428,0.1466,0.1537,0.1578,0.1649,0.1686,0.1741,0.1768,0.1824,0.181,0.1867,0.1849,0.1862,0.1869,0.1871,0.1757,0.1722,0.1804,0.188,0.1878,0.1878,0.1877,0.1876,0,0.124,0.1306,0.1348,0.1369,0.1441,0.1482,0.153,0.16,0.1638,0.1731,0.1769,0.183,0.1876,0.1899,0.1923,0.1907,0.1973,0.1948,0.1865,0.1858,0.1912,0.1904,0.1986,0.1986,0.1986,0.1986,0.1986,0,0.1223,0.1259,0.1345,0.1367,0.1423,0.1481,0.1548,0.1605,0.1684,0.1727,0.1802,0.184,0.1903,0.1943,0.1948,0.193,0.1998,0.1876,0.1865,0.1934,0.1928,0.1918,0.1909,0.1988,0.1987,0.1987,0.1987,0,0.1175,0.1233,0.1285,0.1378,0.141,0.1453,0.1548,0.1589,0.1681,0.1741,0.1775,0.1867,0.192,0.1963,0.2011,0.1955,0.1953,0.1931,0.2016,0.2009,0.1816,0.181,0.1835,0.1832,0.1829,0.1827,0.1825,0,0.115,0.1176,0.128,0.1314,0.1364,0.1437,0.148,0.1577,0.1612,0.1737,0.1751,0.1849,0.1895,0.1874,0.1935,0.1943,0.192,0.1906,0.1842,0.1813,0.1801,0.1799,0.1796,0.182,0.182,0.1819,0.1818,0,0.1103,0.1156,0.1201,0.1269,0.1327,0.1373,0.1445,0.1454,0.156,0.1656,0.1682,0.1712,0.1772,0.1802,0.1829,0.1829,0.1903,0.1877,0.1882,0.1821,0.1796,0.1786,0.1787,0.1809,0.181,0.1811,0.1812,0,0.1071,0.1091,0.1158,0.1207,0.1271,0.1289,0.1335,0.1371,0.1414,0.1539,0.1549,0.1653,0.1749,0.1745,0.1768,0.1763,0.173,0.1662,0.1677,0.1688,0.1614,0.1559,0.1494,0,0,0,0,0,0.1029,0.1043,0.1087,0.1131,0.1188,0.1225,0.1298,0.1343,0.1438,0.1415,0.1472,0.1518,0.1555,0.1615,0.158,0.1716,0.1745,0.1669,0.1675,0.1756,0.1767,0.1694,0,0,0,0,0,0,0.1,0.1042,0.1059,0.1053,0.1069,0.1116,0.1159,0.1227,0.1213,0.1318,0.1345,0.1431,0.1491,0.1559,0.1553,0.1571,0.1544,0.1738,0.1734,0.175,0.176,0.1769,0.1697,0,0,0,0,0]},{"header":{"parameterUnit":"m.s-1","parameterCategory":2,"la1":30.2991,"la2":30.254,"lo1":-89.0895,"lo2":-89.0444,"dy":0.0017,"dx":0.0017,"nx":28,"ny":28,"refTime":"2023-10-11T09:00:00:Z","depth":"4","parameterNumber":3,"parameterNumberName":"V-component_of_CURRENTS"},"data":[0,0,0,0,0,0,0,0,0,0,0,0,0,0,0,0,0,0,0,0,0,0,0,0,0,0,0,0,0,0,0,0,0,0,0,0,0,0,0,0,0,0,0,0,0,0,0,0,0,0,0,0,0,0,0,0,0,0,0.0139,0.0139,0,0.0113,0.0112,0.0112,0.0094,0.0093,0.0093,0.0093,0.006,0.0059,0.0059,0,0,0,0,0,0,0,0,0,0,0,0,0,0.0153,0.0153,0.0139,0.0139,0.0139,0.0113,0.0112,0.0112,0.0094,0.0093,0.0093,0.0093,0.006,0.0059,0.0058,0,0,0,0,0,0,0,0,0,0,0,0,0,0.0139,0.0153,0.0139,0.0127,0.0125,0.0113,0.0112,0.0112,0.0094,0.0093,0.0093,0.0093,0.0061,0.006,0.0058,0.0054,0,0,0.0055,0.0054,0,0,0,0,0,0,0,0,0.014,0.0138,0.0129,0.0128,0.0126,0.0106,0.0105,0.0092,0.0094,0.0105,0.0093,0.0093,0.0075,0.0073,0.0068,0.0053,0.0051,0.0055,0.0054,0.0053,0.0053,0,0,0,0,0,0,0,0.0141,0.0139,0.0129,0.0129,0.0127,0.0115,0.0113,0.0102,0.0091,0.0104,0.0103,0.01,0.0074,0.0069,0.0067,0.0051,0.0055,0.0054,0.0053,0.0052,0.0029,0.0029,0,0,0,0,0,0,0.0146,0.014,0.0129,0.0128,0.0133,0.0115,0.0113,0.0113,0.0091,0.0088,0.0101,0.01,0.0071,0.0068,0.0066,0.0065,0.0053,0.0052,0.0052,0.0029,0.0029,0.003,0,0,0,0,0,0,0.0146,0.0145,0.013,0.0133,0.0131,0.0115,0.0115,0.0112,0.0106,0.0089,0.0085,0.0098,0.0071,0.0067,0.0059,0.0063,0.0052,0.0051,0.0029,0.0029,0.0029,0.006,0,0,0,0,0,0,0.0147,0.0146,0.0148,0.0134,0.0131,0.0126,0.0115,0.0112,0.0105,0.0104,0.0085,0.0082,0.0071,0.0061,0.0058,0.0062,0.005,0.0029,0.0029,0.0029,0.0059,0.0061,0.0063,0,0,0,0,0,0.0147,0.0153,0.0148,0.0147,0.0134,0.0126,0.0124,0.0112,0.0105,0.0105,0.0093,0.0082,0.006,0.006,0.0057,0.006,0.0029,0.0029,0.0029,0.0058,0.0061,0.0063,0,0,0,0,0,0,0.0161,0.0151,0.0146,0.0148,0.0139,0.0123,0.0123,0.0113,0.0103,0.0102,0.0084,0.0081,0.0074,0.0062,0.0063,0.0053,0.0042,0.0042,0.0065,0.0068,0.007,0.0082,0.0049,0,0,0,0,0,0.0165,0.0167,0.0154,0.0156,0.0153,0.0138,0.0133,0.0125,0.0114,0.0109,0.0095,0.0081,0.0072,0.0067,0.0055,0.0051,0.0037,0.005,0.0052,0.0054,0.0061,0.0046,0.0048,0.003,0.003,0.003,0,0,0.0171,0.0166,0.0167,0.0159,0.0152,0.0153,0.0135,0.013,0.0131,0.0107,0.0104,0.0087,0.0072,0.0067,0.0063,0.0059,0.005,0.0054,0.0056,0.0062,0.0047,0.0049,0.005,0.003,0.003,0.003,0,0,0.0185,0.018,0.0186,0.0181,0.0171,0.0164,0.0164,0.0148,0.0142,0.0136,0.0119,0.0107,0.0091,0.0082,0.0076,0.0082,0.0061,0.0075,0.0097,0.0083,0.0085,0.0086,0.0064,0.0063,0.0077,0.0077,0.0077,0,0.0192,0.0199,0.0187,0.0191,0.0191,0.0171,0.018,0.0171,0.0154,0.0153,0.014,0.0117,0.01,0.0099,0.01,0.0088,0.0073,0.009,0.0087,0.0087,0.0088,0.0065,0.0064,0.0079,0.0079,0.0079,0.0078,0,0.021,0.0216,0.022,0.0221,0.022,0.0223,0.0212,0.0206,0.0195,0.0186,0.0177,0.0153,0.014,0.013,0.0117,0.0115,0.0099,0.009,0.0082,0.0092,0.0067,0.0065,0.0081,0.008,0.008,0.008,0,0,0.0228,0.0232,0.0234,0.0243,0.0237,0.024,0.0243,0.0242,0.0249,0.0225,0.023,0.0206,0.0189,0.018,0.0157,0.0144,0.0129,0.0121,0.012,0.0103,0.009,0.0071,0.0066,0.0119,0.0119,0.0119,0.0068,0,0.0247,0.0266,0.0262,0.0283,0.0294,0.0281,0.0289,0.0285,0.0276,0.0274,0.0246,0.024,0.0209,0.0202,0.0184,0.0145,0.0126,0.0143,0.008,0.0078,0.0063,0.0064,0.0119,0.0066,0.0066,0.0066,0.0065,0,0.0269,0.0279,0.0304,0.032,0.0324,0.0335,0.0347,0.035,0.0341,0.0333,0.0318,0.0292,0.0268,0.0239,0.018,0.0192,0.0145,0.0111,0.0108,0.0081,0.0055,0.0055,0.0061,0.0062,0.0062,0.0062,0.0062,0,0.0294,0.031,0.0335,0.0339,0.0352,0.0364,0.0372,0.0372,0.0384,0.037,0.0372,0.0336,0.032,0.0262,0.0186,0.0183,0.0117,0.0104,0.0041,0.0038,0.0058,0.0057,0.0062,0.0062,0.0062,0.0062,0.0062,0,0.0317,0.0337,0.035,0.0365,0.0398,0.0396,0.043,0.0426,0.0433,0.0455,0.0406,0.0406,0.0326,0.0274,0.0201,0.0114,0.0126,0.0046,0.0027,0.007,0.0071,0.0055,0.0055,0.006,0.0061,0.0061,0.0061,0,0.034,0.0348,0.0379,0.0401,0.0412,0.0436,0.047,0.0491,0.0488,0.0511,0.0508,0.0463,0.0393,0.0301,0.0206,0.0138,0.0054,0.0018,0.0068,0.0052,-0.0021,-0.0019,-0.0055,-0.0056,-0.0057,-0.0057,-0.0058,0,0.0353,0.0372,0.0408,0.043,0.0444,0.0479,0.0506,0.0519,0.0543,0.0548,0.0559,0.0501,0.0456,0.0308,0.0206,0.0057,0.0032,-0.0018,-0.0018,-0.0017,-0.0032,-0.0028,-0.0025,-0.0059,-0.006,-0.006,-0.006,0,0.0379,0.0393,0.0417,0.0462,0.0497,0.0537,0.0576,0.0596,0.0614,0.0614,0.0601,0.0519,0.0437,0.0315,0.0193,0.0088,0.0013,-0.0028,-0.0027,-0.0027,-0.0023,-0.0036,-0.0032,-0.0063,-0.0063,-0.0063,-0.0062,0,0.0401,0.0419,0.0452,0.049,0.0537,0.0579,0.0598,0.0623,0.0644,0.0643,0.0643,0.0547,0.0499,0.0331,0.0225,0.0112,0.0081,0.0041,0.0037,0.0039,0.0077,0.0097,0.0079,0,0,0,0,0,0.0417,0.0437,0.0475,0.0517,0.0563,0.0592,0.0638,0.0651,0.0669,0.0665,0.0655,0.0577,0.0416,0.0349,0.0234,0.0197,0.0054,0.0056,0.0005,-0.008,-0.0077,-0.0051,0,0,0,0,0,0,0.0428,0.0464,0.0475,0.0533,0.0565,0.062,0.065,0.0663,0.0658,0.0659,0.0578,0.0541,0.0385,0.0485,0.0231,0.0197,0.0146,-0.0017,-0.002,-0.0082,-0.0079,-0.0076,-0.0049,0,0,0,0,0]}]]